Regional Weather Roundup
Issued by NWS Upton, NY

Current Version | Previous Version | Text Only | Print | Product List | Glossary On
Versions: 1 2 3 4 5 6 7 8 9 10 11 12 13 14 15 16 17 18 19 20 21 22 23 24 25 26 27 28 29 30 31 32 33 34 35 36 37 38 39 40 41 42 43 44 45 46 47 48 49 50
000
ASUS41 KOKX 201505
RWROKX

REGIONAL WEATHER ROUNDUP
NATIONAL WEATHER SERVICE NEW YORK NY
1100 AM EDT SAT SEP 20 2014

NOTE: "FAIR" INDICATES FEW OR NO CLOUDS BELOW 12,000 FEET WITH NO
SIGNIFICANT WEATHER AND/OR OBSTRUCTIONS TO VISIBILITY.

NYZ071-072-176-178-NJZ106-104-201600-
NEW YORK CITY METRO AREA


CITY           SKY/WX    TMP DP  RH WIND       PRES   REMARKS
CENTRAL PARK   MOSUNNY   70  56  61 MISG      30.29F
LAGUARDIA APRT PTSUNNY   71  55  56 S12G21    30.26F
KENNEDY INTL   PTSUNNY   72  56  57 S13       30.29F
NEWARK/LIBERTY PTSUNNY   71  57  61 SE9G17    30.27F
BRNX BOT. GARD   N/A     70  55  60 S8        30.28F
TETERBORO      MOSUNNY   72  55  55 S13       30.26F
$$

NYZ177-179-078>081-201600-
LONG ISLAND NEW YORK

CITY           SKY/WX    TMP DP  RH WIND       PRES   REMARKS
FARMINGDALE    CLOUDY    70  57  63 S14       30.28F
ISLIP          MOSUNNY   70  55  59 S10G22    30.27F
SHIRLEY        MOSUNNY   71  55  56 S17       30.29F
WESTHAMPTON    SUNNY     71  54  54 S12G22    30.30F
MONTAUK POINT    N/A     69  54  58 SE8       30.31F
$$

NYZ052-065-067-201600-
HUDSON VALLEY

CITY           SKY/WX    TMP DP  RH WIND       PRES   REMARKS
WHITE PLAINS   PTSUNNY   68  56  65 S10       30.28F
NEWBURGH       PTSUNNY   64  57  77 MISG      30.28F
MONTGOMERY     CLOUDY    66  56  70 VRB3      30.26F
POUGHKEEPSIE   CLOUDY    66  55  67 S6        30.26F
ALBANY         MOSUNNY   65  53  65 S15G24    30.20F
$$

NJZ001-105-106-008-010-013-015-019>022-104-201600-
NEW JERSEY

CITY           SKY/WX    TMP DP  RH WIND       PRES   REMARKS
NEWARK/LIBERTY PTSUNNY   71  57  61 SE9G17    30.27F
TETERBORO      MOSUNNY   72  55  55 S13       30.26F
CALDWELL       PTSUNNY   70  56  61 SW7       30.28F
MORRISTOWN     PTSUNNY   72  59  64 S14       30.27F
SOMERVILLE     MOSUNNY   72  57  59 SE7       30.26F
LINDEN         PTSUNNY   74  60  60 S8        30.29F
SUSSEX         CLOUDY    70  56  61 S8G17     30.26F
ANDOVER          N/A     67  56  67 VRB5      30.27F
TRENTON        MOSUNNY   71  59  65 S9        30.26F
MILLVILLE      MOSUNNY   75  60  59 SE9       30.26F
ATLANTIC CITY  CLOUDY    70  60  70 SE14      30.26F
WRIGHTSTOWN    MOSUNNY   71  60  67 S8        30.25F
TOMS RIVER     PTSUNNY   72  59  64 SE7       30.28S
BELMAR         CLOUDY    70  57  64 SE9       30.28S
$$

PAZ047>061-062-071-201600-
EASTERN PENNSYLVANIA

CITY           SKY/WX    TMP DP  RH WIND       PRES   REMARKS
PHILADELPHIA   MOSUNNY   73  59  61 SE12      30.27F
ALLENTOWN      CLOUDY    70  58  65 S7        30.26F
SCRANTON       CLOUDY    64  55  72 SW7       30.25S
$$

CTZ002-004>006-009-010-012-RIZ004-006-007-MAZ004-011-015-201600-
SOUTHERN NEW ENGLAND
 IN CT

CITY           SKY/WX    TMP DP  RH WIND       PRES   REMARKS
BRADLEY INTL   PTSUNNY   65  51  60 S10       30.27F
HARTFORD       PTSUNNY   65  53  65 S6        30.29F
DANBURY        CLOUDY    65  55  70 S9G17     30.29F
WTRBRY/OXFORD  PTSUNNY   63  54  72 S9        30.30F
BRIDGEPORT     PTSUNNY   69  57  65 S10       30.28F
MERIDEN        CLOUDY    67  53  61 S10       30.29F
NEW HAVEN      MOSUNNY   71  56  58 S13       30.29F
CHESTER        PTSUNNY   66  54  63 S7        30.30F
GROTON         MOSUNNY   67  54  63 S13       30.29F
WILLIMANTIC    PTSUNNY   64  52  64 S12G21    30.31S

 IN RI

CITY           SKY/WX    TMP DP  RH WIND       PRES   REMARKS
PROVIDENCE     MOSUNNY   66  51  58 S14       30.31F
BLOCK ISLAND   SUNNY     68  52  56 S14G20    30.31F
WESTERLY       SUNNY     67  53  61 S10       30.31F

 IN MA

CITY           SKY/WX    TMP DP  RH WIND       PRES   REMARKS
BOSTON         MOSUNNY   65  48  54 S12       30.30F
WORCESTER      MOSUNNY   59  49  69 S14       30.29F
WESTFIELD      CLOUDY    62  51  67 S9        30.27F
PROVINCETOWN   SUNNY     63  48  59 S15       30.33F
NANTUCKET      SUNNY     63  51  65 SE14      30.33F
$$

ANZ330-335-338-340-345-350-353-355-201600-
COASTAL MARINE OBSERVATIONS


STATION/POSITION TIME  SKY/WX   TEMP    WIND        PRES    VSBY  WAVE
                                AIR SEA DIR/SP/G                  HT/PER
                 (UTC)          (F)     (DEG/KT/KT) (MB)    (MI)  (FT/S)
NY HARB ENTRANCE 1500            69 70  150/ 12/ 14 1025.6          3/ 8
4S FIRE IS       1500               69                N/A           3/ 8
20S FIRE ISLAND  1500            67 67  140/ 12/ 14 1025.9          4/ 9
23SW MTP         1500                                 N/A           3/ 8
HUDSON CANYON    1500            69 72  130/ 16/ 17 1025.4          4/ 7
EXECUTION ROCKS  1500            69 70  180/ 12/ 16   N/A
WESTERN LI SOUND 1500            68     170/ 10/ 14   N/A           1
CENTRAL LI SOUND 1400            66 70  180/ 14/ 17   N/A           1/ 3
EASTERN LI SOUND 1400            65 68  160/ 12/ 17   N/A
ROBBINS REEF     1500            67     160/ 15/ 18 1024.0
$$


>>>>>>>>>>>>>>>>>>>>>>>>>>>> KEY <<<<<<<<<<<<<<<<<<<<<<<<<<<
>                                                          <
>     SKY/WX - SKY CONDITION/PRESENT WEATHER               <
>     TMP    - TEMPERATURE IN FAHRENHEIT                   <
>     DP     - DEWPOINT IN FAHRENHEIT                      <
>     RH     - RELATIVE HUMIDITY IN PERCENT                <
>     WIND   - DIRECTION AND SPEED IN MPH                  <
>     PRES   - MEAN SEA LEVEL PRESSURE IN INCHES OF HG     <
>     WCI    - WIND CHILL INDEX                            <
>     VSB    - VISIBILITY IN MILES                         <
>     HX     - HEAT INDEX                                  <
>     TC     - TEMPERATURE IN CELSIUS                      <
>     VRB    - VARIABLE WIND DIRECTION                     <
>                                                          <
>>>>>>>>>>>>>>>>>>>>>>>>>>>> KEY <<<<<<<<<<<<<<<<<<<<<<<<<<<




USA.gov is the U.S. government's official web portal to all federal, state and local government web resources and services.